Location: *
(43.2048°N, 0.1612°E)
Time: 18:01:08
(UTC+00:00)

NOAA 11 - Pass Details

Date: 30 September 2023
Orbit: 832 x 849 km, 98.5° (Epoch: 05 December)

Event Time Altitude Azimuth Distance (km) Brightness Sun altitude
Rises 04:34:21 0° 7° (N) 3,424 7.6 -15.5°
Reaches altitude 10° 04:36:48 10° 2° (N) 2,484 6.8 -15.0°
Maximum altitude 04:42:02 47° 291° (WNW) 1,113 4.5 -14.1°
Drops below altitude 10° 04:47:15 10° 218° (SW) 2,459 6.2 -13.2°
Enters shadow 04:48:00 - 216° (SW) 2,746 6.5 -13.0°
